SCP
-0 -0 -0 -0 -0 -0 -0 -0 -0 -0 -0 -0 -0 -0 -0 0 -0 -0 0 0 -0 -0 -0 -0 -0 -0 -0 -0 -0 0 -0 0 0 0 -0 -0 -0 0 0 0 -0 -0 0 0 -0 -0 -0
-0 -0 -0 -0 -0 -0 -0 -0 -0 -0 -0 -0 -0 -0 -0 0 0 0 0 0 -0 -0 -0 -0 -0 -0 -0 0 -0 -0 0 0 0 -0 -0 -0 -0 -0 -0 -0 -0 0 0 0 -0 0 -0
-0 -0 -0 -0 -0 -0 -0 -0 -0 -0 -0 -0 -0 -0 -0 0 0 0 0 -0 -0 -0 -0 -0 -0 0 -0 -0 0 -0 0 0 0 0 -0 -0 -0 0 -0 -0 -0 0 0 0 0 0 0
-0 -0 -0 -0 -0 -0 -0 -0 -0 -0 -0 -0 -0 -0 -0 0 0 0 -0 -0 -0 -0 -0 -0 -0 0 -0 -0 0 -0 0 -0 -0 -0 -0 -0 -0 -0 -0 -0 0 -0 -0 0 -0 0 0
-0 -0 -0 -0 -0 -0 0 -0 -0 0 0 -0 -0 -0 -0 -0 -0 -0 -0 -0 -0 -0 -0 0 0 -0 -0 -0 -0 0 -0 -0 -0 -0 -0 -0 0 0 0 -0 0 0 0 -0 0 -0 0
0 -0 -0 -0 -0 -0 -0 0 0 0 0 0 0 0 0 0 -0 -0 -0 -0 0 -0 -0 -0 -0 -0 0 0 0 -0 -0 0 0 0 0 0 0 -0 -0 -0 -0 -0 -0 0 0 0 -0
0 0 -0 -0 -0 -0 -0 0 0 0 0 0 0 0 0 0 0 0 0 0 0 0 0 -0 0 0 0 0 -0 0 0 0 0 0 0 0 0 -0 -0 -0 -0 -0 0 0 -0 -0 -0
0 -0 -0 -0 -0 -0 -0 -0 0 0 0 0 0 0 0 0 0 0 0 0 -0 0 0 0 0 -0 -0 0 0 0 0 0 0 0 0 0 -0 -0 -0 -0 -0 0 0 -0 -0 -0 -0
0 -0 -0 -0 -0 -0 -0 -0 0 0 0 0 0 0 0 0 0 0 0 -0 0 0 0 0 -0 -0 -0 0 0 -0 0 0 0 0 0 0 0 0 0 0 0 0 0 0 0 0 0
-0 -0 -0 -0 -0 -0 -0 -0 -0 0 -0 0 0 0 0 0 0 0 0 0 -0 0 0 0 -0 -0 0 0 0 0 0 -0 0 -0 0 0 -0 0 0 0 0 0 0 0 0 0 0
-0 -0 -0 -0 -0 -0 -0 -0 -0 -0 -0 0 0 0 0 0 0 0 0 0 0 0 0 -0 -0 0 0 -0 -0 0 0 -0 -0 -0 -0 -0 0 0 0 0 0 -0 0 -0 0 0 0
-0 -0 -0 -0 -0 -0 -0 -0 -0 -0 0 0 0 0 0 0 0 0 0 0 0 0 0 0 -0 -0 0 -0 -0 0 0 -0 -0 0 0 -0 0 0 -0 -0 -0 0 0 0 0 0 0
-0 -0 -0 -0 -0 -0 -0 -0 -0 -0 -0 0 0 0 0 0 0 0 0 0 0 0 0 0 0 -0 0 -0 -0 0 0 0 0 0 0 0 -0 0 0 -0 -0 0 0 0 0 0 0
-0 -0 -0 -0 -0 -0 -0 -0 -0 -0 -0 -0 0 0 0 0 0 0 0 0 0 0 0 0 0 0 0 0 0 0 0 0 0 0 0 0 0 -0 0 0 0 0 0 0 0 0 0
-0 -0 -0 -0 -0 -0 -0 -0 -0 -0 -0 -0 0 0 0 0 0 0 0 0 0 0 0 0 0 0 0 0 0 0 0 0 -0 0 0 0 0 -0 0 0 0 0 0 0 0 0 0
-0 -0 -0 -0 -0 -0 -0 -0 -0 -0 -0 -0 0 0 0 0 -0 0 0 0 0 0 0 0 0 0 0 0 0 0 0 0 0 0 0 0 0 -0 0 0 0 0 0 0 0 0 0
-0 -0 -0 -0 -0 -0 -0 -0 -0 -0 -0 -0 0 0 0 0 0 0 0 0 0 0 0 0 0 0 0 0 0 0 0 0 0 0 0 0 0 0 0 0 0 0 0 0 0 0 0
-0 -0 -0 -0 -0 -0 -0 -0 -0 -0 -0 0 0 0 0 0 0 0 0 0 0 0 0 0 0 0 0 0 0 0 0 0 0 0 0 0 0 0 0 0 0 0 0 0 0 0 0
-0 -0 -0 -0 -0 -0 -0 -0 -0 -0 -0 0 0 0 0 0 0 0 0 0 0 0 0 0 0 0 0 0 0 0 0 0 0 0 0 0 0 0 0 0 0 0 0 0 0 0 0
-0 -0 -0 -0 -0 -0 -0 -0 -0 -0 -0 0 0 0 0 0 0 0 0 0 0 0 0 0 0 0 0 0 0 0 0 0 0 0 0 0 0 0 0 0 0 0 0 0 0 0 0
-0 -0 -0 -0 -0 -0 -0 -0 -0 -0 -0 0 0 0 0 0 0 0 0 0 0 0 0 0 0 0 0 0 0 0 0 0 0 0 0 0 0 0 0 0 0 0 0 0 0 0 0
-0 -0 -0 -0 -0 -0 -0 -0 -0 -0 -0 0 0 0 0 0 0 0 0 0 0 0 0 0 0 0 0 0 0 0 0 0 0 0 0 0 0 0 0 0 0 0 0 0 0 0 0
-0 -0 -0 -0 -0 -0 -0 -0 -0 -0 -0 0 0 0 0 0 0 0 0 0 0 0 0 0 0 0 0 0 0 0 0 0 0 0 0 0 0 0 0 0 0 0 0 0 0 0 0
-0 -0 -0 -0 -0 -0 -0 -0 -0 -0 -0 -0 0 0 0 0 0 0 0 0 0 0 0 0 0 0 0 0 0 0 0 0 0 0 0 0 0 0 0 0 0 0 0 0 0 0 0
0 0 0 0 -0 -0 -0 -0 -0 -0 -0 -0 0 0 0 0 0 0 0 0 0 0 0 0 0 0 0 0 0 0 0 0 0 0 0 0 0 0 0 0 0 0 0 0 0 0 0
-0 0 -0 0 0 -0 -0 -0 -0 -0 -0 -0 -0 -0 0 0 0 0 0 0 0 0 0 0 0 0 0 0 0 0 0 0 0 0 0 0 0 0 0 0 0 0 0 0 0 0 0
0 0 0 0 0 0 0 -0 -0 -0 -0 -0 -0 -0 0 0 0 0 0 0 0 0 0 0 0 0 0 0 0 0 0 0 0 0 0 0 0 0 0 0 0 0 0 0 0 0 0
0 0 0 0 0 0 0 0 0 0 0 0 -0 -0 0 0 0 0 0 0 0 0 0 0 0 0 0 0 0 0 0 0 0 0 0 0 0 0 0 0 0 0 0 0 0 0 0
0 0 0 0 0 0 0 0 0 0 0 0 -0 0 0 0 0 0 0 0 0 0 0 0 0 0 0 0 0 0 0 0 0 0 0 0 0 0 0 0 0 -0 0 0 0 0 0
Wind_Speed_500mb
27 26 26 25 24 23 22 22 23 22 20 19 17 16 15 13 13 12 12 11 10 9 8 8 9 9 9 9 14 10 5 12 17 14 9 4 2 7 6 9 1 5 8 10 24 15 25
29 28 26 26 26 25 24 24 23 23 22 20 19 17 16 14 13 13 13 12 10 9 8 9 9 9 9 7 16 20 7 7 15 14 8 3 1 12 7 6 0 13 14 13 7 15 14
30 29 29 28 29 28 27 26 26 25 24 21 20 19 17 15 14 13 13 12 11 10 9 10 11 13 19 22 12 18 18 9 8 13 10 1 2 12 16 10 15 14 9 10 5 7 10
32 31 31 32 32 31 30 30 29 28 26 24 22 19 18 16 14 13 12 12 11 10 10 10 11 14 14 7 19 20 23 10 12 16 9 4 4 13 2 13 14 8 8 10 6 6 4
37 35 34 34 35 35 35 34 32 31 29 26 25 20 18 17 14 12 11 11 11 10 11 11 11 11 10 8 23 25 18 7 8 10 9 5 5 3 9 6 8 13 2 5 14 15 6
43 40 39 39 39 39 39 38 37 35 33 30 25 19 18 16 13 11 10 9 10 13 13 14 17 11 3 5 15 29 20 11 4 5 8 6 4 7 8 11 5 6 9 11 12 6 10
46 45 45 44 43 42 42 40 40 39 36 33 26 22 19 16 11 10 9 6 6 8 22 15 2 3 3 3 8 18 31 18 12 4 4 7 8 9 14 10 6 3 5 11 34 16 11
48 48 48 49 47 45 44 43 43 41 40 36 30 24 19 15 11 12 12 9 6 3 14 24 39 38 31 13 4 11 27 17 8 5 3 12 10 16 3 8 8 6 9 18 25 19 14
49 49 50 50 50 49 47 46 46 43 42 39 33 24 17 13 11 11 11 9 8 13 3 8 11 22 28 22 13 19 28 17 7 6 5 11 13 12 8 3 4 7 9 10 16 15 6
50 50 51 52 53 51 50 48 47 47 44 42 34 22 14 9 7 13 15 2 10 15 8 7 4 4 21 12 6 25 35 20 2 19 13 11 11 11 9 9 14 11 15 15 14 2 7
51 51 52 53 54 54 52 50 48 48 46 40 25 14 11 15 15 17 4 7 14 5 8 2 5 9 22 13 4 17 40 28 14 12 11 16 6 8 7 13 14 19 6 7 6 5 6
51 52 53 54 56 56 54 52 49 47 44 29 16 5 9 20 21 13 5 15 6 10 3 5 10 9 9 4 3 7 14 16 2 8 4 16 5 10 16 7 15 4 1 9 8 6 4
52 53 54 55 57 58 57 54 50 45 37 20 13 4 9 19 23 12 9 13 9 9 6 6 3 6 6 5 4 6 12 10 9 3 8 14 18 8 14 7 1 8 10 6 8 9 11
51 53 54 55 57 59 58 55 49 41 31 15 13 8 9 22 22 12 13 8 8 4 6 7 7 4 7 4 3 4 9 5 6 9 3 3 17 3 6 13 9 13 15 11 11 6 10
51 52 53 55 57 60 60 57 50 37 28 11 11 13 18 18 15 11 6 7 5 2 6 11 5 11 9 7 4 6 4 3 8 17 16 8 15 7 9 9 10 4 7 7 14 6 4
51 52 53 55 57 60 60 58 51 35 27 8 9 18 15 14 12 8 9 7 6 8 10 5 6 5 3 11 7 7 4 9 11 10 8 7 10 5 5 6 1 9 12 5 6 6 7
50 52 53 55 57 59 60 58 53 35 25 5 7 9 7 16 8 2 6 10 8 10 5 3 3 6 5 4 3 5 6 5 9 15 6 5 6 14 7 8 11 2 3 10 8 9 11
49 51 52 54 56 59 60 58 53 38 27 7 6 7 16 15 6 4 3 7 11 12 19 13 10 9 5 7 8 6 5 3 29 10 6 5 6 8 18 6 7 4 6 10 9 8 2
49 50 51 53 55 58 58 57 53 40 28 10 9 11 12 3 6 6 11 6 10 17 13 12 10 10 9 8 2 4 4 4 27 9 4 7 3 7 20 11 8 12 8 8 7 5 12
47 48 50 51 55 58 58 56 53 41 25 10 6 5 5 3 8 4 5 7 5 13 13 14 7 13 10 9 8 1 7 5 19 7 11 5 2 11 12 12 4 10 11 5 5 3 6
46 45 46 49 54 57 57 54 53 43 27 7 8 4 4 1 6 5 2 3 8 10 10 23 8 7 3 3 10 2 4 9 13 3 4 8 7 9 13 14 8 16 15 16 10 14 11
44 42 43 46 51 54 56 56 53 48 26 27 9 6 6 6 4 4 8 5 6 8 7 6 6 3 4 4 7 6 3 5 12 6 5 2 7 2 10 13 7 8 17 20 17 12 13
41 39 40 43 46 50 53 55 54 51 42 23 17 13 5 11 6 6 2 2 6 4 8 9 5 3 6 1 19 24 28 28 5 2 5 2 5 4 9 7 11 11 10 10 5 12 6
40 38 38 40 42 45 49 50 51 50 48 43 30 12 5 2 5 2 6 2 4 6 3 3 12 5 4 26 13 17 19 12 3 12 16 8 5 4 7 6 5 9 8 9 8 5 9
38 37 36 37 38 40 44 46 45 43 37 35 38 19 9 2 1 2 10 5 8 9 3 3 4 16 22 11 7 10 10 9 6 9 10 6 8 2 1 4 10 4 9 9 9 6 13
37 35 33 33 34 35 38 40 42 40 37 29 30 30 9 3 5 1 3 3 1 5 12 1 7 12 11 8 6 5 5 3 9 16 9 9 8 5 3 4 10 3 15 23 7 6 26
35 34 33 31 30 30 32 35 37 39 37 33 27 29 12 6 5 4 4 3 2 3 2 8 15 12 17 5 5 4 4 2 4 6 9 8 8 1 2 6 6 8 32 24 4 8 25
32 32 31 30 27 27 28 31 34 37 38 34 26 28 24 11 16 9 5 8 6 1 5 5 6 9 9 8 4 3 2 3 4 5 5 3 3 5 3 4 11 16 11 7 8 14 26
30 29 29 28 26 25 25 26 30 35 37 36 29 31 32 11 11 18 27 23 17 20 14 2 1 5 5 7 1 4 1 2 5 5 5 4 10 6 12 10 11 27 13 18 33 43 45
Wind_Direction_500mb
17 15 12 10 10 7 2 359 358 358 355 351 345 336 323 313 301 298 294 285 280 270 263 270 282 290 292 246 225 190 128 163 198 205 205 143 58 11 337 335 282 232 277 241 237 186 191
17 15 13 10 8 5 360 356 352 349 346 343 339 333 325 314 301 292 288 283 274 264 258 262 272 278 276 252 208 212 163 177 210 215 214 163 347 351 297 289 229 304 274 286 245 237 205
18 17 13 12 8 4 0 355 350 346 342 338 334 328 323 316 303 290 284 279 273 268 265 263 274 278 272 240 208 204 191 168 206 228 228 303 329 344 321 318 332 324 317 338 224 216 210
20 18 13 9 6 2 357 354 349 343 341 337 330 321 315 311 306 293 282 277 272 267 266 266 274 285 260 213 200 178 178 193 198 194 209 241 340 320 318 318 357 32 40 10 311 191 228
21 16 12 8 3 359 355 351 346 341 341 336 328 316 310 306 303 292 278 271 271 267 262 265 275 281 270 222 200 178 179 158 167 194 204 246 318 8 0 45 16 8 359 301 320 212 124
20 15 11 7 3 357 355 350 346 342 339 334 328 314 305 299 294 282 268 255 254 257 253 258 257 296 240 101 197 195 183 199 131 133 153 195 123 69 35 55 245 322 337 307 259 292 209
17 14 9 5 3 358 354 352 346 341 338 334 327 317 304 293 282 265 245 215 242 258 231 217 225 163 163 57 158 200 212 210 220 27 111 34 66 227 227 197 209 275 248 280 291 264 267
13 10 8 5 2 360 355 351 345 341 337 331 324 315 301 285 266 243 222 205 232 246 299 258 246 247 247 246 330 175 191 177 148 186 80 18 274 241 180 181 197 212 296 286 281 271 176
9 7 5 4 1 360 355 351 345 339 334 328 321 311 292 275 257 238 210 185 254 239 286 287 251 245 246 230 228 197 187 179 142 154 157 161 232 95 165 224 321 246 205 262 236 338 261
7 5 3 1 1 359 356 352 345 338 333 325 317 303 275 246 229 156 141 322 238 210 56 280 267 165 158 147 223 194 198 179 149 198 158 230 258 230 207 232 163 297 186 248 270 202 246
3 3 1 359 359 358 356 352 346 339 335 330 323 294 239 191 153 139 123 110 136 162 63 320 120 144 166 168 141 196 195 197 175 182 126 247 222 206 197 221 165 233 33 341 303 185 33
1 1 360 358 358 358 356 353 348 344 340 341 344 311 196 180 157 132 95 145 130 43 58 46 128 145 126 259 57 91 174 211 103 146 247 242 266 197 216 263 175 261 271 40 56 74 346
359 359 359 357 357 358 356 354 352 349 347 355 6 25 168 165 159 132 134 147 42 101 332 340 109 157 125 152 178 124 154 181 187 92 327 320 260 248 195 287 81 101 68 324 345 9 226
358 358 358 357 357 357 356 355 357 353 353 9 27 41 139 153 152 145 147 44 79 267 298 347 53 74 102 130 235 129 91 188 185 108 83 348 323 179 147 187 190 184 160 161 202 213 259
356 357 357 357 357 357 356 357 0 357 355 6 30 72 115 139 152 158 171 60 212 259 284 337 22 79 359 25 87 83 96 284 253 182 182 196 261 287 188 174 147 205 199 186 108 18 45
356 357 356 357 357 358 357 358 1 2 358 3 60 85 108 111 133 139 76 235 244 222 318 12 88 47 84 340 62 49 70 319 324 202 222 283 287 258 343 197 149 183 157 67 9 156 244
355 357 356 357 358 359 359 360 1 6 2 40 106 96 99 145 133 124 147 232 286 326 334 241 111 80 78 30 359 55 2 210 353 326 99 167 159 287 334 194 196 125 220 54 124 139 175
356 356 356 357 359 0 2 3 2 6 14 75 83 61 125 127 49 38 134 207 342 331 18 39 79 70 77 41 33 83 105 359 1 333 10 349 154 270 235 274 307 218 148 149 134 240 255
356 355 357 358 360 2 4 5 5 7 18 84 79 92 148 20 85 331 315 334 35 17 23 27 45 38 26 55 85 72 7 262 15 41 30 333 321 353 334 358 13 50 5 92 101 79 195
355 357 358 360 2 3 5 8 8 8 18 81 110 74 104 133 73 119 2 352 28 45 44 58 68 56 53 35 6 224 338 326 337 327 13 128 126 188 204 233 196 306 326 19 122 137 195
356 358 0 2 4 6 6 11 13 13 16 83 60 86 98 7 10 59 75 340 6 17 32 37 50 63 62 352 348 350 235 306 297 234 56 94 251 224 251 260 272 261 260 258 231 232 207
358 359 3 5 8 10 10 12 20 23 26 58 68 62 78 63 357 105 9 21 40 337 33 355 93 295 109 146 204 263 229 215 237 3 53 2 252 297 285 283 278 280 284 263 249 229 235
0 2 4 7 10 13 14 15 18 27 39 53 46 48 53 10 20 73 308 53 7 324 88 68 320 139 95 312 296 274 280 268 283 290 230 214 155 89 267 347 346 309 250 258 264 52 349
360 3 3 6 9 13 16 18 19 23 32 38 35 37 32 310 78 107 360 51 25 2 267 345 30 55 305 317 299 282 286 334 48 16 196 140 141 136 246 1 216 254 343 28 98 64 359
356 358 0 2 6 11 16 18 20 20 23 26 30 31 28 81 10 353 5 2 341 341 356 266 21 329 313 310 44 11 343 22 8 50 36 151 126 14 226 215 287 78 1 347 2 301 12
349 352 354 357 1 6 11 15 18 17 16 16 19 20 12 77 251 241 322 348 262 331 346 26 340 342 346 78 75 135 236 293 317 336 70 71 66 128 124 210 236 318 304 320 260 245 356
341 344 346 349 353 358 4 8 11 13 12 10 8 9 6 319 230 214 213 228 159 113 190 309 341 353 7 59 82 150 248 292 299 309 336 346 350 256 278 260 277 304 316 329 150 261 336
330 335 339 339 342 347 353 359 2 5 6 6 359 359 1 308 284 235 226 214 195 157 124 335 28 1 30 59 101 233 152 280 358 289 307 242 345 296 358 265 273 3 357 3 244 285 317
316 324 330 331 331 333 340 348 353 356 360 2 3 353 343 293 267 275 281 248 257 271 261 254 174 222 161 94 143 126 291 52 149 284 332 304 184 222 186 237 263 326 260 290 292 285 295
Wind_Speed_850mb
27 26 26 25 24 23 22 22 23 22 20 19 17 16 15 13 13 12 12 11 10 9 8 8 9 9 9 9 14 10 5 12 17 14 9 4 2 7 6 9 1 5 8 10 24 15 25
29 28 26 26 26 25 24 24 23 23 22 20 19 17 16 14 13 13 13 12 10 9 8 9 9 9 9 7 16 20 7 7 15 14 8 3 1 12 7 6 0 13 14 13 7 15 14
30 29 29 28 29 28 27 26 26 25 24 21 20 19 17 15 14 13 13 12 11 10 9 10 11 13 19 22 12 18 18 9 8 13 10 1 2 12 16 10 15 14 9 10 5 7 10
32 31 31 32 32 31 30 30 29 28 26 24 22 19 18 16 14 13 12 12 11 10 10 10 11 14 14 7 19 20 23 10 12 16 9 4 4 13 2 13 14 8 8 10 6 6 4
37 35 34 34 35 35 35 34 32 31 29 26 25 20 18 17 14 12 11 11 11 10 11 11 11 11 10 8 23 25 18 7 8 10 9 5 5 3 9 6 8 13 2 5 14 15 6
43 40 39 39 39 39 39 38 37 35 33 30 25 19 18 16 13 11 10 9 10 13 13 14 17 11 3 5 15 29 20 11 4 5 8 6 4 7 8 11 5 6 9 11 12 6 10
46 45 45 44 43 42 42 40 40 39 36 33 26 22 19 16 11 10 9 6 6 8 22 15 2 3 3 3 8 18 31 18 12 4 4 7 8 9 14 10 6 3 5 11 34 16 11
48 48 48 49 47 45 44 43 43 41 40 36 30 24 19 15 11 12 12 9 6 3 14 24 39 38 31 13 4 11 27 17 8 5 3 12 10 16 3 8 8 6 9 18 25 19 14
49 49 50 50 50 49 47 46 46 43 42 39 33 24 17 13 11 11 11 9 8 13 3 8 11 22 28 22 13 19 28 17 7 6 5 11 13 12 8 3 4 7 9 10 16 15 6
50 50 51 52 53 51 50 48 47 47 44 42 34 22 14 9 7 13 15 2 10 15 8 7 4 4 21 12 6 25 35 20 2 19 13 11 11 11 9 9 14 11 15 15 14 2 7
51 51 52 53 54 54 52 50 48 48 46 40 25 14 11 15 15 17 4 7 14 5 8 2 5 9 22 13 4 17 40 28 14 12 11 16 6 8 7 13 14 19 6 7 6 5 6
51 52 53 54 56 56 54 52 49 47 44 29 16 5 9 20 21 13 5 15 6 10 3 5 10 9 9 4 3 7 14 16 2 8 4 16 5 10 16 7 15 4 1 9 8 6 4
52 53 54 55 57 58 57 54 50 45 37 20 13 4 9 19 23 12 9 13 9 9 6 6 3 6 6 5 4 6 12 10 9 3 8 14 18 8 14 7 1 8 10 6 8 9 11
51 53 54 55 57 59 58 55 49 41 31 15 13 8 9 22 22 12 13 8 8 4 6 7 7 4 7 4 3 4 9 5 6 9 3 3 17 3 6 13 9 13 15 11 11 6 10
51 52 53 55 57 60 60 57 50 37 28 11 11 13 18 18 15 11 6 7 5 2 6 11 5 11 9 7 4 6 4 3 8 17 16 8 15 7 9 9 10 4 7 7 14 6 4
51 52 53 55 57 60 60 58 51 35 27 8 9 18 15 14 12 8 9 7 6 8 10 5 6 5 3 11 7 7 4 9 11 10 8 7 10 5 5 6 1 9 12 5 6 6 7
50 52 53 55 57 59 60 58 53 35 25 5 7 9 7 16 8 2 6 10 8 10 5 3 3 6 5 4 3 5 6 5 9 15 6 5 6 14 7 8 11 2 3 10 8 9 11
49 51 52 54 56 59 60 58 53 38 27 7 6 7 16 15 6 4 3 7 11 12 19 13 10 9 5 7 8 6 5 3 29 10 6 5 6 8 18 6 7 4 6 10 9 8 2
49 50 51 53 55 58 58 57 53 40 28 10 9 11 12 3 6 6 11 6 10 17 13 12 10 10 9 8 2 4 4 4 27 9 4 7 3 7 20 11 8 12 8 8 7 5 12
47 48 50 51 55 58 58 56 53 41 25 10 6 5 5 3 8 4 5 7 5 13 13 14 7 13 10 9 8 1 7 5 19 7 11 5 2 11 12 12 4 10 11 5 5 3 6
46 45 46 49 54 57 57 54 53 43 27 7 8 4 4 1 6 5 2 3 8 10 10 23 8 7 3 3 10 2 4 9 13 3 4 8 7 9 13 14 8 16 15 16 10 14 11
44 42 43 46 51 54 56 56 53 48 26 27 9 6 6 6 4 4 8 5 6 8 7 6 6 3 4 4 7 6 3 5 12 6 5 2 7 2 10 13 7 8 17 20 17 12 13
41 39 40 43 46 50 53 55 54 51 42 23 17 13 5 11 6 6 2 2 6 4 8 9 5 3 6 1 19 24 28 28 5 2 5 2 5 4 9 7 11 11 10 10 5 12 6
40 38 38 40 42 45 49 50 51 50 48 43 30 12 5 2 5 2 6 2 4 6 3 3 12 5 4 26 13 17 19 12 3 12 16 8 5 4 7 6 5 9 8 9 8 5 9
38 37 36 37 38 40 44 46 45 43 37 35 38 19 9 2 1 2 10 5 8 9 3 3 4 16 22 11 7 10 10 9 6 9 10 6 8 2 1 4 10 4 9 9 9 6 13
37 35 33 33 34 35 38 40 42 40 37 29 30 30 9 3 5 1 3 3 1 5 12 1 7 12 11 8 6 5 5 3 9 16 9 9 8 5 3 4 10 3 15 23 7 6 26
35 34 33 31 30 30 32 35 37 39 37 33 27 29 12 6 5 4 4 3 2 3 2 8 15 12 17 5 5 4 4 2 4 6 9 8 8 1 2 6 6 8 32 24 4 8 25
32 32 31 30 27 27 28 31 34 37 38 34 26 28 24 11 16 9 5 8 6 1 5 5 6 9 9 8 4 3 2 3 4 5 5 3 3 5 3 4 11 16 11 7 8 14 26
30 29 29 28 26 25 25 26 30 35 37 36 29 31 32 11 11 18 27 23 17 20 14 2 1 5 5 7 1 4 1 2 5 5 5 4 10 6 12 10 11 27 13 18 33 43 45
Wind_Direction_850mb
17 15 12 10 10 7 2 359 358 358 355 351 345 336 323 313 301 298 294 285 280 270 263 270 282 290 292 246 225 190 128 163 198 205 205 143 58 11 337 335 282 232 277 241 237 186 191
17 15 13 10 8 5 360 356 352 349 346 343 339 333 325 314 301 292 288 283 274 264 258 262 272 278 276 252 208 212 163 177 210 215 214 163 347 351 297 289 229 304 274 286 245 237 205
18 17 13 12 8 4 0 355 350 346 342 338 334 328 323 316 303 290 284 279 273 268 265 263 274 278 272 240 208 204 191 168 206 228 228 303 329 344 321 318 332 324 317 338 224 216 210
20 18 13 9 6 2 357 354 349 343 341 337 330 321 315 311 306 293 282 277 272 267 266 266 274 285 260 213 200 178 178 193 198 194 209 241 340 320 318 318 357 32 40 10 311 191 228
21 16 12 8 3 359 355 351 346 341 341 336 328 316 310 306 303 292 278 271 271 267 262 265 275 281 270 222 200 178 179 158 167 194 204 246 318 8 0 45 16 8 359 301 320 212 124
20 15 11 7 3 357 355 350 346 342 339 334 328 314 305 299 294 282 268 255 254 257 253 258 257 296 240 101 197 195 183 199 131 133 153 195 123 69 35 55 245 322 337 307 259 292 209
17 14 9 5 3 358 354 352 346 341 338 334 327 317 304 293 282 265 245 215 242 258 231 217 225 163 163 57 158 200 212 210 220 27 111 34 66 227 227 197 209 275 248 280 291 264 267
13 10 8 5 2 360 355 351 345 341 337 331 324 315 301 285 266 243 222 205 232 246 299 258 246 247 247 246 330 175 191 177 148 186 80 18 274 241 180 181 197 212 296 286 281 271 176
9 7 5 4 1 360 355 351 345 339 334 328 321 311 292 275 257 238 210 185 254 239 286 287 251 245 246 230 228 197 187 179 142 154 157 161 232 95 165 224 321 246 205 262 236 338 261
7 5 3 1 1 359 356 352 345 338 333 325 317 303 275 246 229 156 141 322 238 210 56 280 267 165 158 147 223 194 198 179 149 198 158 230 258 230 207 232 163 297 186 248 270 202 246
3 3 1 359 359 358 356 352 346 339 335 330 323 294 239 191 153 139 123 110 136 162 63 320 120 144 166 168 141 196 195 197 175 182 126 247 222 206 197 221 165 233 33 341 303 185 33
1 1 360 358 358 358 356 353 348 344 340 341 344 311 196 180 157 132 95 145 130 43 58 46 128 145 126 259 57 91 174 211 103 146 247 242 266 197 216 263 175 261 271 40 56 74 346
359 359 359 357 357 358 356 354 352 349 347 355 6 25 168 165 159 132 134 147 42 101 332 340 109 157 125 152 178 124 154 181 187 92 327 320 260 248 195 287 81 101 68 324 345 9 226
358 358 358 357 357 357 356 355 357 353 353 9 27 41 139 153 152 145 147 44 79 267 298 347 53 74 102 130 235 129 91 188 185 108 83 348 323 179 147 187 190 184 160 161 202 213 259
356 357 357 357 357 357 356 357 0 357 355 6 30 72 115 139 152 158 171 60 212 259 284 337 22 79 359 25 87 83 96 284 253 182 182 196 261 287 188 174 147 205 199 186 108 18 45
356 357 356 357 357 358 357 358 1 2 358 3 60 85 108 111 133 139 76 235 244 222 318 12 88 47 84 340 62 49 70 319 324 202 222 283 287 258 343 197 149 183 157 67 9 156 244
355 357 356 357 358 359 359 360 1 6 2 40 106 96 99 145 133 124 147 232 286 326 334 241 111 80 78 30 359 55 2 210 353 326 99 167 159 287 334 194 196 125 220 54 124 139 175
356 356 356 357 359 0 2 3 2 6 14 75 83 61 125 127 49 38 134 207 342 331 18 39 79 70 77 41 33 83 105 359 1 333 10 349 154 270 235 274 307 218 148 149 134 240 255
356 355 357 358 360 2 4 5 5 7 18 84 79 92 148 20 85 331 315 334 35 17 23 27 45 38 26 55 85 72 7 262 15 41 30 333 321 353 334 358 13 50 5 92 101 79 195
355 357 358 360 2 3 5 8 8 8 18 81 110 74 104 133 73 119 2 352 28 45 44 58 68 56 53 35 6 224 338 326 337 327 13 128 126 188 204 233 196 306 326 19 122 137 195
356 358 0 2 4 6 6 11 13 13 16 83 60 86 98 7 10 59 75 340 6 17 32 37 50 63 62 352 348 350 235 306 297 234 56 94 251 224 251 260 272 261 260 258 231 232 207
358 359 3 5 8 10 10 12 20 23 26 58 68 62 78 63 357 105 9 21 40 337 33 355 93 295 109 146 204 263 229 215 237 3 53 2 252 297 285 283 278 280 284 263 249 229 235
0 2 4 7 10 13 14 15 18 27 39 53 46 48 53 10 20 73 308 53 7 324 88 68 320 139 95 312 296 274 280 268 283 290 230 214 155 89 267 347 346 309 250 258 264 52 349
360 3 3 6 9 13 16 18 19 23 32 38 35 37 32 310 78 107 360 51 25 2 267 345 30 55 305 317 299 282 286 334 48 16 196 140 141 136 246 1 216 254 343 28 98 64 359
356 358 0 2 6 11 16 18 20 20 23 26 30 31 28 81 10 353 5 2 341 341 356 266 21 329 313 310 44 11 343 22 8 50 36 151 126 14 226 215 287 78 1 347 2 301 12
349 352 354 357 1 6 11 15 18 17 16 16 19 20 12 77 251 241 322 348 262 331 346 26 340 342 346 78 75 135 236 293 317 336 70 71 66 128 124 210 236 318 304 320 260 245 356
341 344 346 349 353 358 4 8 11 13 12 10 8 9 6 319 230 214 213 228 159 113 190 309 341 353 7 59 82 150 248 292 299 309 336 346 350 256 278 260 277 304 316 329 150 261 336
330 335 339 339 342 347 353 359 2 5 6 6 359 359 1 308 284 235 226 214 195 157 124 335 28 1 30 59 101 233 152 280 358 289 307 242 345 296 358 265 273 3 357 3 244 285 317
316 324 330 331 331 333 340 348 353 356 360 2 3 353 343 293 267 275 281 248 257 271 261 254 174 222 161 94 143 126 291 52 149 284 332 304 184 222 186 237 263 326 260 290 292 285 295